Skip Page Navigation
NASA JPL Caltech
NASA Logo - Jet Propulsion Laboratory + View the NASA Portal
+ Near-Earth Object (NEO) Program
Search JPL
JPL Home Earth Solar System Stars & Galaxies Technology
JPL Solar System Dynamics
BODIES ORBITS EPHEMERIDES TOOLS PHYSICAL DATA DISCOVERY FAQ SITE MAP
JPL Small-Body Database Browser
Search: [ help ]  
279744 (1998 KM3)
Classification: Apollo [NEO, PHA]          SPK-ID: 2279744
Ephemeris | Orbit Diagram | Orbital Elements | Physical Parameters | Discovery Circumstances | Close-Approach Data ]

[ hide orbit diagram ]
Orbit Diagram
Note: Make sure you have Java enabled on your browser to see the applet. This applet is provided as a 3D orbit visualization tool. The applet was implemented using 2-body methods, and hence should not be used for determining accurate long-term trajectories (over several years or decades) or planetary encounter circumstances. For accurate long-term ephemerides, please instead use our Horizons system.
Orbit Viewer

Additional Notes: the orbits shown in the applet are color coded. The planets are white lines, and the asteroid/comet is a blue line. The bright white line indicates the portion of the orbit that is above the ecliptic plane, and the darker portion is below the ecliptic plane. Likewise for the asteroid/comet orbit, the light blue indicates the portion above the ecliptic plane, and the dark blue the portion below the ecliptic plane.

Orbit Viewer applet originally written and kindly provided by Osamu Ajiki (AstroArts), and further modified by Ron Baalke (JPL).


Orbital Elements at Epoch 2456400.5 (2013-Apr-18.0) TDB
Reference: JPL 24 (heliocentric ecliptic J2000)
 Element Value Uncertainty (1-sigma)   Units 
e .6110516652898451 1.0284e-07  
a 1.672156326146053 1.2237e-08 AU
q .6503824184295581 1.7581e-07 AU
i 4.661252063778189 2.2582e-05 deg
node 263.3350313960025 0.00012695 deg
peri 84.98893585311514 0.00012227 deg
M 282.1653273917249 2.8062e-05 deg
tp 2456571.259291200329
(2013-Oct-05.75929120)
6.21e-05 JED
period 789.7938383000645
2.16
8.6697e-06
2.374e-08
d
yr
n .4558151539582233 5.0035e-09 deg/d
Q 2.693930233862549 1.9714e-08 AU
  Orbit Determination Parameters
   # obs. used (total)      72  
   data-arc span      5001 days (13.69 yr)  
   first obs. used      1998-05-24  
   last obs. used      2012-02-01  
   planetary ephem.      DE405  
   SB-pert. ephem.      SB405-CPV-2  
   condition code      0  
   fit RMS      .59925  
   data source      ORB  
   producer      Otto Matic  
   solution date      2013-Apr-29 15:41:17  

Additional Information
 Earth MOID = .0028935 AU 
 T_jup = 4.006 
[ show covariance matrix ]

Ephemeris | Orbit Diagram | Orbital Elements | Physical Parameters | Discovery Circumstances | Close-Approach Data ]

Physical Parameter Table
Parameter Symbol Value Units Sigma Reference Notes
absolute magnitude H 19.518 mag .66438 24 autocmod 2.5c

279744 (1998 KM3)          Discovered 1998-May-24 by LINEAR at Socorro (704)
Reference: 20110615/Numbers.arcLast Updated: 2011-06-23

[ show close-approach data ]
Ephemeris | Orbit Diagram | Orbital Elements | Physical Parameters | Discovery Circumstances | Close-Approach Data ]
ABOUT SSD CREDITS/AWARDS PRIVACY/COPYRIGHT GLOSSARY LINKS
FirstGov 2013-May-18 21:47 UT
(server date/time)  
NASA Home Page
Site Manager:   Donald K. Yeomans
Webmaster  Alan B. Chamberlin